User: anonymous   Login
Location: Plymouth
(43.7570°N, 71.6890°W)
Time: 10:16:39
(UTC-05:00)
Language:

Meteor 1-28 Rocket - Orbit

View from above orbital plane
View from above orbital plane
View from above satellite
View from above satellite

Ground track
Ground track

The orbit data is extracted from the following two-line orbital elements,

1 10114U 77057B   17022.93309957 +.00000383 +00000-0 +22789-4 0  9996
2 10114 097.1964 212.5599 0015738 105.2872 255.0103 15.16574475161332
Epoch (UTC): 22 January 2017 22:23:39
Eccentricity: 0.0015738
inclination: 97.1964°
perigee height: 505 km
apogee height: 527 km
right ascension of ascending node: 212.5599°
argument of perigee: 105.2872°
revolutions per day: 15.16574475
mean anomaly at epoch: 255.0103°
orbit number at epoch: 16133

The dashed part of the orbit path shows where the satellite is in the earth's shadow,  

DLR